User: anonymous   Login
Location: Alto Pass Reservoir
(37.5801°N, 89.3084°W)
Time: 02:53:42
(UTC+00:00)
Language:

NEOSSAT - Orbit

View from above orbital plane
View from above orbital plane
View from above satellite
View from above satellite

Ground track
Ground track

The orbit data is extracted from the following two-line orbital elements,

1 39089U 13009D   22279.48802267  .00000285  00000-0  11575-3 0  9998
2 39089  98.4179 113.0044 0010459 311.6730  48.3559 14.34699934503130
Epoch (UTC): 06 October 2022 11:42:45
Eccentricity: 0.0010459
inclination: 98.4179°
perigee height: 768 km
apogee height: 783 km
right ascension of ascending node: 113.0044°
argument of perigee: 311.6730°
revolutions per day: 14.34699934
mean anomaly at epoch: 48.3559°
orbit number at epoch: 50313

The dashed part of the orbit path shows where the satellite is in the earth's shadow,  

DLR